Theta_e
317 316 317 322 322 317 319 321 319 320 321 319 319 323 330 330 342 341 337 330 325 322 324 327 320 322 325 328 326 327 328 330 332 334 335 334 333 333 332 332 330 326 321 318 317 317 315 315 316
319 320 318 316 321 320 318 319 321 319 320 319 319 321 337 341 337 340 337 328 325 320 324 320 319 320 322 325 324 324 326 328 330 333 334 334 332 331 329 328 326 322 319 317 317 316 315 318 318
322 322 316 319 318 320 319 320 320 320 319 320 319 321 330 340 338 340 339 330 324 320 322 319 318 320 321 321 321 321 322 324 327 330 331 332 330 328 326 324 322 320 317 318 316 315 317 320 320
325 324 318 322 320 320 321 319 318 319 319 318 319 322 331 336 340 340 337 331 323 323 321 318 318 319 322 319 320 319 320 322 324 326 327 329 328 326 325 323 320 319 317 316 317 317 318 321 322
324 319 324 320 321 320 320 319 319 319 317 318 319 321 325 335 339 340 336 329 322 323 320 318 318 318 321 318 319 318 319 320 321 322 324 327 329 328 325 323 320 318 317 316 319 319 320 323 323
326 318 320 322 319 321 320 320 320 319 318 321 320 320 327 337 341 340 336 328 322 321 319 318 317 317 318 319 318 317 318 318 319 319 320 322 325 325 323 322 320 319 317 315 320 321 324 325 325
329 321 323 321 321 323 323 322 323 321 320 324 319 321 329 343 342 339 335 332 330 325 321 318 317 317 318 318 317 317 318 318 318 318 318 319 319 320 321 321 321 319 317 316 318 324 326 326 326
327 324 327 325 325 324 324 324 321 323 326 322 321 322 325 333 342 337 334 334 332 331 326 321 318 317 318 319 317 317 317 317 317 317 317 318 318 319 320 320 321 319 317 316 316 322 327 327 326
320 327 329 327 326 325 325 325 324 325 324 325 321 324 329 342 342 336 334 334 334 334 330 322 319 318 319 319 318 317 317 316 316 316 316 316 318 319 320 319 319 318 317 315 314 317 324 326 328
319 320 327 327 327 327 327 326 326 326 326 326 325 324 328 337 340 338 335 334 337 337 332 323 320 319 319 319 319 317 318 318 317 317 316 316 316 317 317 317 316 316 316 315 314 314 322 326 326
317 321 324 324 322 323 323 323 323 325 326 326 325 323 323 325 330 334 338 336 335 333 333 327 321 320 319 319 319 318 318 318 318 317 317 316 316 316 317 316 316 316 315 316 315 316 321 324 326
311 312 313 315 316 318 320 320 321 322 323 324 323 324 323 325 325 329 333 337 340 336 331 329 325 321 321 322 319 319 317 318 318 318 317 317 317 317 318 317 316 316 317 318 316 316 320 322 325
309 310 310 310 310 311 312 313 314 315 316 317 318 321 324 323 324 325 327 327 331 341 341 331 328 323 322 322 321 320 319 318 318 318 318 318 317 317 317 319 318 318 319 320 319 319 320 322 324
308 309 309 310 310 310 312 313 314 316 317 317 317 318 320 322 324 324 326 328 331 334 340 343 333 330 326 324 324 322 321 320 319 320 320 320 320 319 319 320 319 320 322 321 321 323 324 324 326
309 308 307 309 310 311 312 312 313 315 316 316 317 317 319 322 323 322 325 327 331 334 340 344 343 338 333 327 325 324 323 322 321 320 320 323 326 326 327 327 328 325 325 325 325 327 329 330 331
307 305 304 307 308 309 311 313 314 314 314 316 315 316 317 317 321 324 325 327 329 333 333 341 345 343 340 337 335 333 330 326 323 324 332 336 337 337 338 338 337 335 332 331 329 329 331 332 333
305 307 308 308 308 308 310 309 310 311 311 312 312 312 313 313 314 320 323 325 327 327 330 336 345 346 343 342 339 336 333 333 335 336 339 340 340 341 342 341 341 339 337 335 333 331 333 333 334
310 309 308 308 309 310 309 310 310 311 311 311 311 311 312 313 312 313 314 317 322 327 329 335 340 345 345 343 341 339 339 340 340 341 341 341 342 343 344 344 343 340 339 337 335 333 334 334 335
309 310 309 309 310 309 309 311 311 310 310 310 310 311 311 311 312 312 313 314 319 325 329 330 334 339 344 344 343 343 343 342 344 344 343 344 345 342 342 344 343 342 341 341 338 335 335 335 336
309 310 310 311 312 312 311 312 312 310 309 309 310 310 310 309 310 311 312 312 314 318 323 327 330 334 341 344 343 342 343 343 345 344 345 345 339 339 342 345 344 344 343 341 339 337 336 337 337
311 311 311 313 312 311 311 311 310 309 309 309 309 308 308 308 308 309 310 310 312 314 318 323 326 328 331 338 343 343 343 343 342 343 338 337 339 340 342 343 344 345 344 342 341 339 337 336 336
313 311 312 311 312 313 311 313 310 309 308 308 307 306 306 306 307 307 308 309 310 311 313 319 324 327 332 338 344 343 341 342 341 339 335 340 336 336 339 342 345 346 345 344 343 343 341 339 336
311 311 310 311 313 313 312 308 310 309 309 307 306 306 307 312 313 314 314 312 310 310 312 312 319 327 329 340 344 343 342 340 339 339 337 336 337 340 341 344 345 346 346 345 344 343 342 340 338
310 309 309 310 307 311 311 309 311 308 308 307 308 314 314 314 313 312 313 314 314 314 311 312 319 327 330 339 342 342 341 337 336 334 334 335 338 340 344 345 346 347 347 346 345 345 342 341 340
305 306 307 310 311 311 308 309 309 309 309 311 316 316 314 312 311 311 311 312 314 315 314 311 317 324 330 334 339 341 339 336 336 333 332 336 341 345 346 347 347 346 346 345 344 344 343 341 339
307 305 306 311 313 310 310 312 310 308 315 317 316 314 313 312 310 310 311 312 314 316 316 313 313 323 331 333 336 338 337 335 334 331 333 335 336 341 346 347 346 346 346 345 345 344 342 341 338
308 307 306 310 311 311 310 310 310 310 317 316 314 313 311 311 312 311 312 314 316 316 317 317 313 323 330 333 334 335 336 335 332 331 333 336 337 343 346 346 346 346 345 344 345 343 342 340 339
308 308 311 304 308 313 313 313 312 310 310 315 314 312 312 312 312 312 312 314 317 317 317 320 320 320 329 332 333 334 335 333 333 333 335 335 340 346 346 346 347 346 344 345 343 342 341 339 338
307 309 312 308 314 315 316 313 309 313 315 314 313 312 312 313 313 313 314 315 316 317 315 323 319 323 329 330 331 333 333 334 334 334 334 337 343 346 346 347 346 343 344 343 342 340 339 337 335
308 309 309 308 312 312 313 313 310 313 313 313 312 313 313 311 313 314 315 316 317 317 317 325 320 326 327 329 330 332 334 334 336 336 337 341 345 347 347 347 343 343 343 342 340 338 335 334 334
Wind_Speed
12 8 1 3 3 4 4 7 2 8 8 4 4 5 13 20 10 6 3 38 38 46 44 40 37 36 34 34 32 31 29 27 25 22 21 21 20 19 18 16 15 13 11 10 10 9 8 7 6
8 4 2 2 3 1 5 4 4 6 6 11 11 10 4 7 5 6 15 36 43 49 48 44 39 38 36 35 33 31 29 27 26 23 21 20 19 18 17 15 13 11 10 9 9 8 8 7 6
6 5 3 3 3 7 4 4 4 8 9 6 6 7 6 6 4 16 12 39 47 51 48 45 41 40 37 35 34 32 30 28 25 24 21 19 17 16 15 14 12 10 8 8 8 8 7 7 6
1 1 4 2 12 5 3 6 6 12 12 4 5 7 8 3 7 25 36 45 50 50 48 45 42 40 38 36 34 32 30 28 26 24 22 20 18 17 15 14 12 11 10 9 9 8 8 8 6
1 2 2 3 12 2 3 3 4 8 6 8 7 7 5 4 5 28 47 49 54 52 48 45 41 40 39 37 35 32 30 28 26 23 22 21 19 18 16 15 13 11 11 9 9 9 8 8 7
1 3 0 7 18 1 3 4 3 2 6 14 6 7 5 3 10 32 51 54 55 54 51 46 42 40 39 37 35 33 31 29 26 24 22 21 20 19 17 15 14 12 12 11 10 10 9 9 7
3 3 4 5 9 2 2 3 2 2 6 7 8 7 8 1 15 14 18 29 41 48 48 46 44 41 39 37 35 33 31 29 27 24 23 22 20 19 18 17 15 14 13 12 12 11 11 11 9
4 4 3 4 9 3 1 5 5 1 7 7 6 6 10 3 18 20 19 25 34 37 42 44 43 41 40 38 34 32 31 30 28 25 24 23 22 20 19 18 17 16 15 15 15 14 13 13 11
3 2 5 5 4 3 4 6 2 4 3 6 7 5 8 8 21 22 21 20 28 32 38 42 42 42 39 37 35 33 30 29 27 25 24 23 24 23 22 20 19 19 18 17 17 16 16 15 14
4 4 8 4 3 6 9 4 9 7 14 6 10 9 11 10 9 7 13 17 22 27 35 41 42 41 38 36 35 35 32 31 30 29 27 27 26 24 23 21 21 21 20 20 19 18 18 18 18
3 5 2 5 5 6 11 10 10 8 15 5 11 10 9 4 1 3 5 16 35 36 34 41 42 41 39 38 37 35 34 33 32 31 29 28 26 25 25 23 22 24 23 23 22 21 21 21 21
4 4 3 2 7 9 13 11 14 17 20 7 8 10 7 7 5 4 6 7 13 26 40 40 41 42 41 40 38 36 35 35 34 33 31 29 28 27 27 26 24 25 25 25 24 23 23 23 22
3 3 6 7 6 7 11 14 15 24 17 12 9 9 8 9 9 10 9 12 17 20 24 42 43 44 44 42 41 39 38 37 35 34 32 31 30 29 27 27 24 26 27 26 26 25 24 24 24
3 3 6 4 6 5 7 12 5 32 4 9 8 9 9 9 9 8 10 14 18 29 34 32 43 45 46 46 43 43 40 38 36 35 32 31 31 30 27 26 25 28 29 26 26 25 24 24 24
2 5 6 5 4 5 7 12 21 18 11 9 12 7 8 9 12 10 16 15 18 27 33 39 41 44 45 45 42 41 40 38 37 35 33 30 29 29 25 23 25 28 28 24 23 24 22 23 22
4 4 4 5 5 6 6 16 10 6 8 15 11 8 8 9 10 20 17 17 12 12 25 37 41 42 45 43 42 42 37 35 35 34 31 28 27 27 23 24 26 27 26 22 22 25 23 24 22
6 1 1 6 6 5 4 4 7 12 6 9 13 13 7 6 8 17 18 19 17 16 18 29 37 42 45 42 39 37 36 33 34 33 31 29 27 26 23 25 28 28 25 23 23 24 24 26 24
4 2 3 6 6 7 12 15 7 7 8 9 7 12 17 12 8 9 19 18 23 18 20 26 33 40 43 42 39 36 35 34 34 32 30 28 26 24 23 25 29 28 25 24 23 24 23 25 23
2 3 5 6 6 7 11 18 14 7 5 7 8 10 9 16 15 12 19 23 17 16 24 25 30 33 32 30 34 33 36 39 37 37 32 27 26 25 23 27 29 26 25 25 27 25 23 22 21
3 2 4 6 6 10 9 23 18 12 6 7 7 8 10 9 12 21 19 18 25 22 23 29 29 31 33 32 30 27 33 39 39 40 34 29 28 25 25 30 30 26 24 25 26 26 21 20 18
2 3 4 7 7 8 8 22 9 4 4 5 6 6 6 8 11 13 15 21 26 27 23 29 33 37 37 44 32 28 22 25 26 32 28 33 27 26 30 31 27 24 24 26 25 25 24 18 17
3 4 5 9 6 3 3 12 6 3 8 6 7 8 10 11 9 10 17 19 25 27 31 30 32 35 37 38 41 36 30 26 33 36 38 27 24 25 29 26 24 24 25 24 22 22 24 20 13
7 6 6 6 6 3 4 5 3 7 7 9 8 8 7 7 10 13 13 22 31 31 31 33 35 35 41 41 42 40 31 28 23 26 23 25 21 22 24 23 24 23 21 21 23 22 22 20 16
3 3 4 3 2 2 9 7 17 4 4 4 4 5 6 10 13 14 17 21 25 29 31 32 30 35 40 39 44 42 38 32 28 24 24 22 20 20 23 23 22 19 21 21 21 22 22 21 17
6 5 4 4 2 5 2 3 15 12 10 5 3 8 9 9 11 14 13 13 23 28 30 32 29 32 37 41 42 42 40 36 39 34 27 21 19 20 23 23 22 19 21 19 20 22 20 20 16
5 7 4 5 4 10 10 6 7 4 5 4 5 9 10 11 12 13 15 13 23 27 31 31 29 33 36 40 41 43 41 38 42 34 26 26 25 24 25 26 23 21 20 20 18 20 19 18 16
4 4 4 2 2 1 5 8 9 10 7 5 8 8 10 14 17 17 14 19 23 26 32 34 32 32 33 39 40 40 43 40 39 33 26 25 24 27 29 27 25 22 21 20 22 19 18 17 14
6 3 3 2 3 5 5 6 8 8 10 7 12 11 13 17 19 20 17 16 24 28 35 41 38 35 34 39 40 43 45 44 39 29 25 26 29 27 28 28 25 23 21 22 20 19 18 16 13
3 2 1 3 3 3 4 5 6 8 8 12 10 9 12 19 22 21 21 21 22 29 33 34 28 32 30 34 34 38 41 36 29 26 26 31 29 27 30 29 27 25 25 22 20 18 16 15 14
6 5 4 3 5 4 3 12 7 8 9 10 9 10 13 18 23 23 19 16 20 28 32 26 26 28 31 36 38 34 28 24 24 25 30 33 28 28 32 31 28 28 26 23 21 19 16 16 16
Wind_Direction
312 319 300 46 48 68 247 255 276 310 337 310 288 188 228 219 186 202 269 162 172 168 170 168 166 166 166 165 160 159 158 157 156 156 155 153 154 156 157 160 160 160 158 157 157 151 150 145 138
321 316 57 87 104 202 256 251 297 260 279 292 284 308 179 209 181 121 126 170 170 169 169 168 169 169 170 168 164 163 163 163 161 162 163 162 163 164 163 165 167 167 165 167 166 162 156 151 147
342 270 94 135 169 220 224 212 47 298 275 278 294 263 252 213 156 163 175 171 171 170 170 170 172 172 173 171 170 168 169 169 169 168 170 171 171 174 174 174 173 178 178 183 182 178 168 169 158
171 331 41 102 243 229 219 311 354 326 323 315 296 319 311 273 173 179 171 170 172 174 171 172 173 175 177 176 176 173 174 175 176 177 178 182 182 182 183 185 184 189 195 196 197 195 185 181 166
220 77 112 244 262 226 248 264 321 295 286 297 306 280 266 1 257 171 169 172 174 173 174 174 176 179 181 181 181 178 179 181 182 184 185 188 192 192 193 196 197 201 205 208 207 210 206 197 182
80 94 83 225 247 35 296 265 250 311 289 305 304 313 260 52 176 170 171 174 177 174 173 176 180 182 184 187 186 185 184 185 187 190 194 196 199 201 203 205 208 212 215 217 217 220 218 216 206
145 104 233 263 264 300 250 282 260 303 306 305 304 319 300 330 156 165 163 168 175 176 175 177 182 187 189 192 192 190 190 190 192 195 201 204 208 211 213 215 218 220 228 226 225 228 230 231 225
149 129 255 251 262 300 233 345 296 13 301 307 332 5 318 323 156 159 165 169 173 177 177 179 185 190 193 196 199 198 196 196 197 198 204 208 213 218 220 226 227 228 232 235 234 232 237 242 240
136 131 226 236 265 146 312 1 226 295 286 316 329 4 334 113 148 146 147 160 173 179 181 183 188 193 196 198 201 203 204 203 203 205 208 212 216 218 221 228 235 236 237 238 239 237 240 244 247
180 170 224 242 253 325 292 317 302 331 321 314 325 342 39 77 90 138 162 173 177 186 187 188 193 196 198 201 205 207 208 208 208 209 210 215 220 223 226 229 237 241 242 242 242 242 241 244 249
194 232 219 288 319 328 301 306 307 313 291 330 308 314 338 51 338 142 270 216 190 191 192 195 196 200 199 204 207 209 210 214 215 216 217 220 223 225 229 229 234 241 242 241 241 241 242 244 249
257 235 273 294 312 306 286 309 286 282 272 296 307 295 300 310 308 259 201 249 232 205 200 201 201 202 205 207 209 213 215 218 221 222 221 224 225 226 230 233 235 242 243 242 241 243 245 248 250
219 341 349 333 311 285 288 287 281 275 278 285 273 290 290 281 267 279 276 277 253 241 228 207 206 207 209 211 213 217 218 223 225 229 228 228 231 233 234 238 240 245 245 244 248 245 246 250 253
305 278 291 292 265 243 259 282 305 274 9 297 289 275 272 250 254 283 268 284 290 238 223 227 209 212 212 213 216 219 220 225 229 234 236 235 238 239 240 241 247 247 247 246 250 249 250 252 254
285 332 338 220 233 252 223 260 248 278 310 284 294 288 283 259 259 232 249 248 251 249 227 224 224 214 215 216 220 224 226 227 232 235 240 241 240 242 243 246 250 249 247 246 248 250 251 253 254
7 45 20 284 315 248 173 260 288 310 332 311 332 312 300 277 259 268 251 244 245 256 239 233 223 222 218 219 220 226 227 227 233 235 237 239 242 244 244 248 249 250 247 247 241 244 245 250 252
12 60 281 304 288 270 211 298 316 320 331 315 313 311 316 323 325 306 298 264 255 259 261 236 226 223 222 219 224 223 224 224 231 234 238 239 242 243 249 252 251 248 246 242 240 242 241 246 250
284 332 267 269 286 300 292 286 257 268 284 285 301 311 316 303 295 291 309 318 293 261 251 247 233 228 225 219 220 222 226 229 235 235 235 242 246 246 252 258 255 247 242 238 239 238 240 241 250
261 274 263 275 289 324 300 301 305 277 256 280 288 290 292 302 310 327 324 324 316 262 243 234 241 235 223 208 212 219 224 229 231 232 232 233 244 251 255 256 248 244 241 242 237 234 236 236 242
174 187 279 270 342 311 301 290 294 291 258 237 256 281 291 300 314 321 328 323 319 306 261 247 238 241 230 218 219 213 213 223 228 233 231 236 243 251 257 251 247 247 244 238 234 229 226 234 227
355 265 259 277 295 254 279 279 265 277 279 272 270 269 290 284 295 301 309 312 312 308 292 259 245 237 233 233 228 225 214 219 229 234 232 232 237 245 248 246 249 250 245 238 229 228 224 209 209
312 254 285 307 336 297 44 289 187 219 260 279 288 269 266 278 304 311 311 305 301 296 300 295 264 245 237 230 218 220 215 213 228 231 225 231 234 237 238 238 241 242 237 234 226 227 224 220 191
236 249 265 270 270 300 207 264 157 315 283 261 273 298 330 328 315 308 307 306 302 296 291 294 288 265 244 229 219 218 216 222 225 220 214 221 227 227 227 224 227 229 232 228 225 223 220 217 208
290 315 316 329 76 259 217 196 284 222 260 320 282 307 308 307 303 298 296 300 300 300 286 282 279 263 246 228 222 214 214 214 212 215 213 220 216 217 217 214 217 218 218 215 220 225 217 216 219
54 51 322 327 332 229 299 304 262 298 296 237 260 278 279 271 278 289 296 303 303 298 295 279 269 261 249 230 225 218 216 213 219 224 221 211 207 206 205 199 197 201 213 220 220 220 210 216 213
242 169 168 262 257 280 293 236 261 237 214 229 239 263 275 287 288 286 290 289 291 289 294 282 258 245 236 224 220 217 216 212 223 226 221 217 217 214 201 195 195 198 205 210 211 207 216 210 209
261 220 208 209 280 357 235 270 299 273 247 292 293 296 299 306 309 301 297 295 291 288 292 283 260 241 228 223 218 212 211 214 223 225 220 217 220 214 201 196 193 191 203 210 210 204 212 205 201
175 190 274 5 290 266 274 267 246 276 280 308 298 299 311 312 306 301 296 288 287 295 290 288 256 239 225 216 211 208 211 217 221 220 213 214 216 208 200 195 192 187 199 194 197 193 191 197 207
307 303 189 160 179 246 282 247 224 266 270 268 273 297 303 314 307 300 297 289 287 303 293 283 252 223 217 217 211 206 213 215 214 216 215 212 209 202 198 191 188 185 184 185 183 185 191 204 204
226 236 180 139 264 241 258 275 251 241 253 272 271 285 317 329 312 302 294 277 303 314 301 293 235 211 212 213 213 210 208 209 211 213 213 208 200 200 195 188 186 182 181 178 181 189 196 201 201